Location: City of Moscow
(46.7306°N, 116.9989°W)
Time: 05:43:24
(UTC+00:00)

Orbus 7S? - Pass Details

Date: 15 March 2026
Orbit: 354 x 6170 km, 56.9° (Epoch: 30 September)

Event Time Altitude Azimuth Distance (km) Brightness Sun altitude
Rises 10:31:53 0° 138° (SE) 10,699 9.9 -34.1°
Reaches altitude 10° 10:46:17 10° 121° (ESE) 9,516 9.8 -32.2°
Maximum altitude 11:00:38 15° 97° (E) 8,285 9.7 -30.2°
Drops below altitude 10° 11:12:09 10° 72° (ENE) 7,601 10.0 -28.5°
Sets 11:20:25 0° 54° (NE) 7,549 10.4 -27.3°
